• In Moldova, Republic
  • List of Countries
  • For 7 days
  • Water Temperature
  • Satellite Maps
  • Weather Map
  • Weather Widgets
  • user-avatar
    Login

    Hourly Weather Perth

    Today, 30 May, Tuesday

    Time Temperature Precipitation Wind Pressure Humidity
    00:00 +13°C° 0 mm 5 mps 765 mmHg 59%
    01:00 +13°C° 0 mm 5 mps 765 mmHg 60%
    02:00 +13°C° 0 mm 5 mps 765 mmHg 60%
    03:00 +13°C° 0 mm 5 mps 765 mmHg 60%
    04:00 +13°C° 0 mm 5 mps 765 mmHg 60%
    05:00 +13°C° 0 mm 5 mps 765 mmHg 60%
    06:00 +13°C° 0 mm 5 mps 765 mmHg 59%
    07:00 +13°C° 0 mm 4 mps 765 mmHg 58%
    08:00 +14°C° 0 mm 5 mps 765 mmHg 58%
    09:00 +17°C° 0 mm 4 mps 765 mmHg 52%
    10:00 +19°C° 0 mm 4 mps 765 mmHg 47%
    11:00 +22°C° 0 mm 4 mps 765 mmHg 42%
    12:00 +23°C° 0 mm 4 mps 764 mmHg 39%
    13:00 +25°C° 0 mm 3 mps 764 mmHg 36%
    14:00 +26°C° 0 mm 3 mps 764 mmHg 33%
    15:00 +24°C° 0 mm 2 mps 764 mmHg 41%
    16:00 +21°C° 0 mm 2 mps 764 mmHg 50%
    17:00 +20°C° 0 mm 1 mps 764 mmHg 59%
    18:00 +18°C° 0 mm 1 mps 764 mmHg 68%
    19:00 +15°C° 0 mm 1 mps 764 mmHg 77%
    20:00 +12°C° 0 mm 0 mps 764 mmHg 86%
    21:00 +14°C° 0 mm 1 mps 764 mmHg 78%
    22:00 +15°C° 0 mm 1 mps 764 mmHg 69%
    23:00 +15°C° 0 mm 2 mps 764 mmHg 61%

    Tomorrow, 31 May, Wednesday

    Time Temperature Precipitation Wind Pressure Humidity
    00:00 +15°C° 0 mm 2 mps 764 mmHg 59%
    01:00 +15°C° 0 mm 2 mps 764 mmHg 58%
    02:00 +15°C° 0 mm 2 mps 764 mmHg 56%
    03:00 +14°C° 0 mm 3 mps 764 mmHg 55%
    04:00 +14°C° 0 mm 3 mps 764 mmHg 54%
    05:00 +14°C° 0 mm 3 mps 764 mmHg 53%
    06:00 +14°C° 0 mm 3 mps 764 mmHg 54%
    07:00 +14°C° 0 mm 3 mps 764 mmHg 54%
    08:00 +16°C° 0 mm 3 mps 764 mmHg 54%
    09:00 +18°C° 0 mm 3 mps 764 mmHg 49%
    10:00 +21°C° 0 mm 3 mps 764 mmHg 43%
    11:00 +24°C° 0 mm 3 mps 764 mmHg 37%
    12:00 +25°C° 0 mm 3 mps 764 mmHg 35%
    13:00 +26°C° 0 mm 3 mps 763 mmHg 33%
    14:00 +27°C° 0 mm 3 mps 763 mmHg 30%
    15:00 +25°C° 0 mm 2 mps 763 mmHg 39%
    16:00 +23°C° 0 mm 2 mps 763 mmHg 47%
    17:00 +20°C° 0 mm 1 mps 763 mmHg 56%
    18:00 +19°C° 0 mm 1 mps 763 mmHg 63%
    19:00 +16°C° 0 mm 1 mps 764 mmHg 70%
    20:00 +13°C° 0 mm 0 mps 764 mmHg 77%
    21:00 +15°C° 0 mm 1 mps 764 mmHg 71%
    22:00 +15°C° 0 mm 1 mps 764 mmHg 65%
    23:00 +16°C° 0 mm 1 mps 764 mmHg 60%

    Day after tomorrow, 1 June, Thursday

    Time Temperature Precipitation Wind Pressure Humidity
    00:00 +16°C° 0 mm 1 mps 764 mmHg 58%
    01:00 +16°C° 0 mm 2 mps 764 mmHg 56%
    02:00 +16°C° 0 mm 2 mps 764 mmHg 54%
    03:00 +15°C° 0 mm 2 mps 763 mmHg 55%
    04:00 +15°C° 0 mm 1 mps 763 mmHg 56%
    05:00 +14°C° 0 mm 1 mps 763 mmHg 57%
    06:00 +15°C° 0 mm 1 mps 763 mmHg 57%
    07:00 +15°C° 0 mm 1 mps 764 mmHg 56%
    08:00 +15°C° 0 mm 1 mps 764 mmHg 56%
    09:00 +19°C° 0 mm 1 mps 764 mmHg 51%
    10:00 +22°C° 0 mm 1 mps 765 mmHg 47%
    11:00 +25°C° 0 mm 2 mps 765 mmHg 42%
    12:00 +25°C° 0 mm 2 mps 764 mmHg 43%
    13:00 +25°C° 0 mm 2 mps 764 mmHg 44%
    14:00 +26°C° 0 mm 2 mps 764 mmHg 44%
    15:00 +24°C° 0 mm 2 mps 764 mmHg 53%
    16:00 +23°C° 0 mm 2 mps 764 mmHg 62%
    17:00 +20°C° 0 mm 2 mps 765 mmHg 70%
    18:00 +18°C° 0 mm 2 mps 765 mmHg 78%
    19:00 +18°C° 0 mm 1 mps 765 mmHg 87%
    20:00 +15°C° 0 mm 1 mps 766 mmHg 95%
    21:00 +15°C° 0 mm 1 mps 766 mmHg 95%
    22:00 +14°C° 0 mm 1 mps 766 mmHg 96%
    23:00 +12°C° 0 mm 0 mps 767 mmHg 97%

    2 June, Friday

    Time Temperature Precipitation Wind Pressure Humidity
    00:00 +12°C° 0 mm 0 mps 766 mmHg 97%
    01:00 +12°C° 0 mm 1 mps 766 mmHg 98%
    02:00 +12°C° 0 mm 1 mps 766 mmHg 98%
    03:00 +12°C° 0 mm 1 mps 766 mmHg 98%
    04:00 +12°C° 0 mm 1 mps 766 mmHg 98%
    05:00 +12°C° 0 mm 1 mps 766 mmHg 98%
    06:00 +13°C° 0 mm 1 mps 766 mmHg 97%
    07:00 +14°C° 0 mm 1 mps 767 mmHg 97%
    08:00 +15°C° 0 mm 1 mps 767 mmHg 96%
    09:00 +17°C° 0 mm 2 mps 767 mmHg 83%
    10:00 +20°C° 0 mm 2 mps 767 mmHg 70%
    11:00 +23°C° 0 mm 2 mps 767 mmHg 58%
    12:00 +23°C° 0 mm 2 mps 767 mmHg 57%
    13:00 +22°C° 0 mm 3 mps 766 mmHg 55%
    14:00 +24°C° 0 mm 3 mps 765 mmHg 54%
    15:00 +21°C° 0 mm 3 mps 766 mmHg 60%
    16:00 +20°C° 0 mm 3 mps 766 mmHg 67%
    17:00 +19°C° 0 mm 2 mps 766 mmHg 73%
    18:00 +17°C° 0 mm 2 mps 766 mmHg 81%
    19:00 +16°C° 0 mm 2 mps 767 mmHg 88%
    20:00 +14°C° 0 mm 1 mps 767 mmHg 96%
    21:00 +14°C° 0 mm 1 mps 767 mmHg 96%
    22:00 +14°C° 0 mm 1 mps 767 mmHg 96%
    23:00 +14°C° 0 mm 1 mps 767 mmHg 96%

    3 June, Saturday

    Time Temperature Precipitation Wind Pressure Humidity
    00:00 +14°C° 0 mm 1 mps 767 mmHg 95%
    01:00 +14°C° 0 mm 1 mps 766 mmHg 95%
    02:00 +14°C° 0 mm 1 mps 766 mmHg 95%
    03:00 +14°C° 0 mm 1 mps 766 mmHg 94%
    04:00 +14°C° 0 mm 1 mps 766 mmHg 94%
    05:00 +14°C° 0 mm 1 mps 766 mmHg 94%
    06:00 +14°C° 0 mm 1 mps 767 mmHg 91%
    07:00 +15°C° 0 mm 1 mps 767 mmHg 87%
    08:00 +16°C° 0 mm 2 mps 767 mmHg 84%
    09:00 +18°C° 0.3 mm 2 mps 767 mmHg 77%
    10:00 +20°C° 0.3 mm 2 mps 767 mmHg 71%
    11:00 +23°C° 0.3 mm 2 mps 768 mmHg 65%
    12:00 +23°C° 0.3 mm 2 mps 767 mmHg 64%
    13:00 +23°C° 0.3 mm 2 mps 766 mmHg 64%
    14:00 +23°C° 0.3 mm 2 mps 766 mmHg 64%
    15:00 +21°C° 0.1 mm 2 mps 766 mmHg 69%
    16:00 +20°C° 0.1 mm 3 mps 767 mmHg 74%
    17:00 +19°C° 0.1 mm 3 mps 767 mmHg 78%
    18:00 +18°C° 0.1 mm 3 mps 767 mmHg 83%
    19:00 +17°C° 0.1 mm 3 mps 768 mmHg 88%
    20:00 +16°C° 0.1 mm 3 mps 769 mmHg 93%
    21:00 +16°C° 0 mm 3 mps 769 mmHg 93%
    22:00 +14°C° 0 mm 4 mps 769 mmHg 94%
    23:00 +14°C° 0 mm 4 mps 769 mmHg 94%

    4 June, Sunday

    Time Temperature Precipitation Wind Pressure Humidity
    00:00 +13°C° 0 mm 4 mps 769 mmHg 94%
    01:00 +13°C° 0 mm 4 mps 769 mmHg 94%
    02:00 +13°C° 0 mm 4 mps 769 mmHg 94%
    03:00 +13°C° 0 mm 4 mps 769 mmHg 94%
    04:00 +12°C° 0 mm 4 mps 769 mmHg 94%
    05:00 +12°C° 0 mm 4 mps 769 mmHg 94%
    06:00 +12°C° 0 mm 4 mps 770 mmHg 93%
    07:00 +12°C° 0 mm 3 mps 770 mmHg 91%
    08:00 +12°C° 0 mm 3 mps 770 mmHg 90%
    09:00 +14°C° 0 mm 3 mps 770 mmHg 81%
    10:00 +16°C° 0 mm 3 mps 770 mmHg 73%
    11:00 +18°C° 0 mm 3 mps 770 mmHg 64%
    12:00 +19°C° 0 mm 3 mps 770 mmHg 59%
    13:00 +20°C° 0 mm 3 mps 769 mmHg 54%
    14:00 +21°C° 0 mm 2 mps 768 mmHg 49%
    15:00 +20°C° 0 mm 2 mps 768 mmHg 53%
    16:00 +18°C° 0 mm 3 mps 769 mmHg 58%
    17:00 +17°C° 0 mm 3 mps 769 mmHg 62%
    18:00 +16°C° 0 mm 3 mps 769 mmHg 66%
    19:00 +14°C° 0 mm 3 mps 769 mmHg 69%
    20:00 +12°C° 0 mm 3 mps 770 mmHg 73%
    21:00 +12°C° 0 mm 3 mps 770 mmHg 75%
    22:00 +11°C° 0 mm 3 mps 770 mmHg 78%
    23:00 +11°C° 0 mm 3 mps 770 mmHg 80%
    Show more